LEBL Weather Reports


time (UTC)temp
F
wind
direction
speed
knots
gust
knots
rain 1hr
in
rain 24hr
in
rain mn
in
humidity
%
barometer
mb
20260507141504 66 100 10.4 0.0 0.00 0.00 0.00 59 1013.0
20260507140004 66 110 10.4 0.0 0.00 0.00 0.00 59 1013.0
20260507134504 66 110 10.4 0.0 0.00 0.00 0.00 59 1013.0
20260507133004 66 110 11.3 0.0 0.00 0.00 0.00 63 1014.0
20260507131504 66 110 11.3 0.0 0.00 0.00 0.00 63 1014.0
20260507124504 66 120 11.3 0.0 0.00 0.00 0.00 63 1014.0
20260507123005 66 100 10.4 0.0 0.00 0.00 0.00 68 1014.0
20260507120005 66 90 11.3 0.0 0.00 0.00 0.00 63 1014.0
20260507114504 66 90 11.3 0.0 0.00 0.00 0.00 63 1014.0
20260507113005 66 100 11.3 0.0 0.00 0.00 0.00 63 1014.0
20260507111504 66 100 11.3 0.0 0.00 0.00 0.00 63 1014.0
20260507110005 64 80 12.2 0.0 0.00 0.00 0.00 67 1015.0
20260507104504 64 80 12.2 0.0 0.00 0.00 0.00 67 1015.0
20260507103005 66 90 11.3 0.0 0.00 0.00 0.00 63 1014.0
20260507101504 66 90 11.3 0.0 0.00 0.00 0.00 63 1014.0
20260507091504 64 100 11.3 0.0 0.00 0.00 0.00 67 1014.0
20260507090005 64 60 0.9 0.0 0.00 0.00 0.00 77 1014.0
20260507083005 63 350 4.3 0.0 0.00 0.00 0.00 72 1014.0
20260507081503 63 350 4.3 0.0 0.00 0.00 0.00 72 1014.0
20260507080004 59 330 6.1 0.0 0.00 0.00 0.00 76 1014.0
20260507064504 55 330 7.0 0.0 0.00 0.00 0.00 82 1013.0
20260507063004 55 330 7.0 0.0 0.00 0.00 0.00 82 1013.0
20260507061504 55 330 7.0 0.0 0.00 0.00 0.00 82 1013.0
20260507053004 55 340 5.2 0.0 0.00 0.00 0.00 87 1013.0
20260507050005 55 330 6.1 0.0 0.00 0.00 0.00 87 1013.0
20260507043004 55 330 6.1 0.0 0.00 0.00 0.00 87 1013.0
20260507041503 55 330 6.1 0.0 0.00 0.00 0.00 87 1013.0
20260507040005 55 330 6.1 0.0 0.00 0.00 0.00 87 1013.0
20260507034504 55 330 6.1 0.0 0.00 0.00 0.00 87 1013.0
20260507031515 57 330 5.2 0.0 0.00 0.00 0.00 82 1013.0
20260507030004 57 40 5.2 0.0 0.00 0.00 0.00 82 1013.0
20260507024503 57 40 5.2 0.0 0.00 0.00 0.00 82 1013.0
20260507021503 59 50 7.0 0.0 0.00 0.00 0.00 76 1013.0
20260507014503 57 350 5.2 0.0 0.00 0.00 0.00 82 1013.0
20260507013005 59 340 5.2 0.0 0.00 0.00 0.00 76 1014.0
20260507011503 59 340 5.2 0.0 0.00 0.00 0.00 76 1014.0
20260507004504 57 330 6.1 0.0 0.00 0.00 0.00 76 1014.0
20260507003005 57 330 4.3 0.0 0.00 0.00 0.00 76 1013.0
20260507001504 57 330 4.3 0.0 0.00 0.00 0.00 76 1013.0
20260507000004 57 330 4.3 0.0 0.00 0.00 0.00 76 1013.0
20260506230004 59 310 4.3 0.0 0.00 0.00 0.00 76 1014.0
20260506224504 59 310 4.3 0.0 0.00 0.00 0.00 76 1014.0
20260506223005 61 20 0.9 0.0 0.00 0.00 0.00 72 1013.0
20260506220005 63 0 0.9 0.0 0.00 0.00 0.00 72 1013.0
20260506214504 63 0 0.9 0.0 0.00 0.00 0.00 72 1013.0
20260506203004 64 0 1.7 0.0 0.00 0.00 0.00 63 1012.0
20260506201504 64 0 1.7 0.0 0.00 0.00 0.00 63 1012.0
20260506194504 64 0 1.7 0.0 0.00 0.00 0.00 63 1012.0
20260506193004 64 160 4.3 0.0 0.00 0.00 0.00 63 1011.0
20260506191503 64 160 4.3 0.0 0.00 0.00 0.00 63 1011.0
20260506190004 64 180 6.1 0.0 0.00 0.00 0.00 63 1011.0
20260506184504 64 180 6.1 0.0 0.00 0.00 0.00 63 1011.0
20260506181504 66 180 6.1 0.0 0.00 0.00 0.00 59 1011.0
20260506180005 66 190 6.1 0.0 0.00 0.00 0.00 55 1011.0
20260506174504 66 190 6.1 0.0 0.00 0.00 0.00 55 1011.0
20260506171504 66 180 6.1 0.0 0.00 0.00 0.00 55 1011.0
20260506164504 66 190 0.9 0.0 0.00 0.00 0.00 52 1011.0
20260506163005 66 190 10.4 0.0 0.00 0.00 0.00 55 1011.0
20260506160005 66 190 11.3 0.0 0.00 0.00 0.00 48 1011.0
20260506153004 68 190 11.3 0.0 0.00 0.00 0.00 49 1011.0
20260506151503 68 190 11.3 0.0 0.00 0.00 0.00 49 1011.0
20260506150004 68 190 0.9 0.0 0.00 0.00 0.00 49 1011.0
20260506144504 68 190 0.9 0.0 0.00 0.00 0.00 49 1011.0